Year,Month,Day,Hour,Minute,Value (Times are PST for temperature in C)
2015,06,28,00,00,21.40
2015,06,28,00,01,21.40
2015,06,28,00,02,21.40
2015,06,28,00,03,21.40
2015,06,28,00,04,21.40
2015,06,28,00,05,21.40
2015,06,28,00,06,21.40
2015,06,28,00,07,21.40
2015,06,28,00,08,21.40
2015,06,28,00,09,21.40
2015,06,28,00,10,21.40
2015,06,28,00,11,21.40
2015,06,28,00,12,21.30
2015,06,28,00,13,21.30
2015,06,28,00,14,21.30
2015,06,28,00,15,21.30
2015,06,28,00,16,21.30
2015,06,28,00,17,21.30
2015,06,28,00,18,21.30
2015,06,28,00,19,21.30
2015,06,28,00,20,21.20
2015,06,28,00,21,21.20
2015,06,28,00,22,21.20
2015,06,28,00,23,21.20
2015,06,28,00,24,21.20
2015,06,28,00,25,21.20
2015,06,28,00,26,21.20
2015,06,28,00,27,21.10
2015,06,28,00,28,21.10
2015,06,28,00,29,21.00
2015,06,28,00,30,21.00
2015,06,28,00,31,20.90
2015,06,28,00,32,20.90
2015,06,28,00,33,20.80
2015,06,28,00,34,20.80
2015,06,28,00,35,20.80
2015,06,28,00,36,20.70
2015,06,28,00,37,20.70
2015,06,28,00,38,20.70
2015,06,28,00,39,20.70
2015,06,28,00,40,20.60
2015,06,28,00,41,20.60
2015,06,28,00,42,20.60
2015,06,28,00,43,20.60
2015,06,28,00,44,20.50
2015,06,28,00,45,20.50
2015,06,28,00,46,20.50
2015,06,28,00,47,20.40
2015,06,28,00,48,20.40
2015,06,28,00,49,20.40
2015,06,28,00,50,20.40
2015,06,28,00,51,20.40
2015,06,28,00,52,20.40
2015,06,28,00,53,20.40
2015,06,28,00,54,20.40
2015,06,28,00,55,20.40
2015,06,28,00,56,20.40
2015,06,28,00,57,20.30
2015,06,28,00,58,20.30
2015,06,28,00,59,20.30
2015,06,28,01,00,20.30
2015,06,28,01,01,20.30
2015,06,28,01,02,20.30
2015,06,28,01,03,20.30
2015,06,28,01,04,20.20
2015,06,28,01,05,20.20
2015,06,28,01,06,20.20
2015,06,28,01,07,20.20
2015,06,28,01,08,20.20
2015,06,28,01,09,20.10
2015,06,28,01,10,20.10
2015,06,28,01,11,20.10
2015,06,28,01,12,20.10
2015,06,28,01,13,20.10
2015,06,28,01,14,20.00
2015,06,28,01,15,20.00
2015,06,28,01,16,20.00
2015,06,28,01,17,20.00
2015,06,28,01,18,19.90
2015,06,28,01,19,19.90
2015,06,28,01,20,19.90
2015,06,28,01,21,19.90
2015,06,28,01,22,19.90
2015,06,28,01,23,19.90
2015,06,28,01,24,19.80
2015,06,28,01,25,19.80
2015,06,28,01,26,19.80
2015,06,28,01,27,19.80
2015,06,28,01,28,19.80
2015,06,28,01,29,19.80
2015,06,28,01,30,19.80
2015,06,28,01,31,19.80
2015,06,28,01,32,19.70
2015,06,28,01,33,19.70
2015,06,28,01,34,19.70
2015,06,28,01,35,19.70
2015,06,28,01,36,19.60
2015,06,28,01,37,19.60
2015,06,28,01,38,19.60
2015,06,28,01,39,19.60
2015,06,28,01,40,19.60
2015,06,28,01,41,19.60
2015,06,28,01,42,19.60
2015,06,28,01,43,19.60
2015,06,28,01,44,19.60
2015,06,28,01,45,19.60
2015,06,28,01,46,19.60
2015,06,28,01,47,19.60
2015,06,28,01,48,19.60
2015,06,28,01,49,19.60
2015,06,28,01,50,19.60
2015,06,28,01,51,19.60
2015,06,28,01,52,19.60
2015,06,28,01,53,19.60
2015,06,28,01,54,19.50
2015,06,28,01,55,19.50
2015,06,28,01,56,19.50
2015,06,28,01,57,19.60
2015,06,28,01,58,19.60
2015,06,28,01,59,19.60
2015,06,28,02,00,19.60
2015,06,28,02,01,19.60
2015,06,28,02,02,19.60
2015,06,28,02,03,19.60
2015,06,28,02,04,19.50
2015,06,28,02,05,19.50
2015,06,28,02,06,19.50
2015,06,28,02,07,19.40
2015,06,28,02,08,19.40
2015,06,28,02,09,19.40
2015,06,28,02,10,19.30
2015,06,28,02,11,19.30
2015,06,28,02,12,19.30
2015,06,28,02,13,19.30
2015,06,28,02,14,19.30
2015,06,28,02,15,19.30
2015,06,28,02,16,19.30
2015,06,28,02,17,19.30
2015,06,28,02,18,19.30
2015,06,28,02,19,19.40
2015,06,28,02,20,19.40
2015,06,28,02,21,19.40
2015,06,28,02,22,19.40
2015,06,28,02,23,19.40
2015,06,28,02,24,19.40
2015,06,28,02,25,19.40
2015,06,28,02,26,19.40
2015,06,28,02,27,19.40
2015,06,28,02,28,19.40
2015,06,28,02,29,19.40
2015,06,28,02,30,19.40
2015,06,28,02,31,19.40
2015,06,28,02,32,19.40
2015,06,28,02,33,19.40
2015,06,28,02,34,19.40
2015,06,28,02,35,19.40
2015,06,28,02,36,19.30
2015,06,28,02,37,19.30
2015,06,28,02,38,19.30
2015,06,28,02,39,19.20
2015,06,28,02,40,19.20
2015,06,28,02,41,19.10
2015,06,28,02,42,19.10
2015,06,28,02,43,19.10
2015,06,28,02,44,19.10
2015,06,28,02,45,19.10
2015,06,28,02,46,19.10
2015,06,28,02,47,19.00
2015,06,28,02,48,19.00
2015,06,28,02,49,19.00
2015,06,28,02,50,19.00
2015,06,28,02,51,19.00
2015,06,28,02,52,19.00
2015,06,28,02,53,19.00
2015,06,28,02,54,18.90
2015,06,28,02,55,18.90
2015,06,28,02,56,18.90
2015,06,28,02,57,18.90
2015,06,28,02,58,18.90
2015,06,28,02,59,18.90
2015,06,28,03,00,18.90
2015,06,28,03,01,18.90
2015,06,28,03,02,18.80
2015,06,28,03,03,18.80
2015,06,28,03,04,18.70
2015,06,28,03,05,18.70
2015,06,28,03,06,18.60
2015,06,28,03,07,18.60
2015,06,28,03,08,18.60
2015,06,28,03,09,18.50
2015,06,28,03,10,18.50
2015,06,28,03,11,18.40
2015,06,28,03,12,18.40
2015,06,28,03,13,18.40
2015,06,28,03,14,18.30
2015,06,28,03,15,18.30
2015,06,28,03,16,18.30
2015,06,28,03,17,18.30
2015,06,28,03,18,18.20
2015,06,28,03,19,18.20
2015,06,28,03,20,18.20
2015,06,28,03,21,18.20
2015,06,28,03,22,18.10
2015,06,28,03,23,18.10
2015,06,28,03,24,18.10
2015,06,28,03,25,18.00
2015,06,28,03,26,18.00
2015,06,28,03,27,17.90
2015,06,28,03,28,17.90
2015,06,28,03,29,17.90
2015,06,28,03,30,17.80
2015,06,28,03,31,17.80
2015,06,28,03,32,17.80
2015,06,28,03,33,17.70
2015,06,28,03,34,17.70
2015,06,28,03,35,17.70
2015,06,28,03,36,17.70
2015,06,28,03,37,17.70
2015,06,28,03,38,17.70
2015,06,28,03,39,17.70
2015,06,28,03,40,17.60
2015,06,28,03,41,17.60
2015,06,28,03,42,17.60
2015,06,28,03,43,17.60
2015,06,28,03,44,17.60
2015,06,28,03,45,17.60
2015,06,28,03,46,17.60
2015,06,28,03,47,17.60
2015,06,28,03,48,17.60
2015,06,28,03,49,17.60
2015,06,28,03,50,17.60
2015,06,28,03,51,17.60
2015,06,28,03,52,17.60
2015,06,28,03,53,17.50
2015,06,28,03,54,17.50
2015,06,28,03,55,17.50
2015,06,28,03,56,17.40
2015,06,28,03,57,17.40
2015,06,28,03,58,17.40
2015,06,28,03,59,17.40
2015,06,28,04,00,17.40
2015,06,28,04,01,17.40
2015,06,28,04,02,17.40
2015,06,28,05,02,17.60
2015,06,28,05,03,17.60
2015,06,28,05,04,17.60
2015,06,28,05,05,17.60
2015,06,28,05,06,17.60
2015,06,28,05,07,17.60
2015,06,28,05,08,17.60
2015,06,28,05,09,17.60
2015,06,28,05,10,17.60
2015,06,28,05,11,17.60
2015,06,28,05,12,17.60
2015,06,28,05,13,17.60
2015,06,28,05,14,17.60
2015,06,28,05,15,17.60
2015,06,28,05,16,17.60
2015,06,28,05,17,17.60
2015,06,28,05,18,17.60
2015,06,28,05,19,17.60
2015,06,28,05,20,17.60
2015,06,28,05,21,17.60
2015,06,28,05,22,17.60
2015,06,28,05,23,17.60
2015,06,28,05,24,17.60
2015,06,28,05,25,17.50
2015,06,28,05,26,17.50
2015,06,28,05,27,17.40
2015,06,28,05,28,17.30
2015,06,28,05,29,17.30
2015,06,28,05,30,17.30
2015,06,28,05,31,17.20
2015,06,28,05,32,17.20
2015,06,28,05,33,17.10
2015,06,28,05,34,17.10
2015,06,28,05,35,17.00
2015,06,28,05,36,17.00
2015,06,28,05,37,17.00
2015,06,28,05,38,17.10
2015,06,28,05,39,17.10
2015,06,28,05,40,17.20
2015,06,28,05,41,17.20
2015,06,28,05,42,17.20
2015,06,28,05,43,17.30
2015,06,28,05,44,17.40
2015,06,28,05,45,17.40
2015,06,28,05,46,17.40
2015,06,28,05,47,17.40
2015,06,28,05,48,17.50
2015,06,28,05,49,17.50
2015,06,28,05,50,17.50
2015,06,28,05,51,17.50
2015,06,28,05,52,17.50
2015,06,28,05,53,17.50
2015,06,28,05,54,17.50
2015,06,28,05,55,17.50
2015,06,28,05,56,17.50
2015,06,28,05,57,17.50
2015,06,28,05,58,17.50
2015,06,28,05,59,17.60
2015,06,28,06,00,17.60
2015,06,28,06,01,17.60
2015,06,28,06,02,17.70
2015,06,28,06,03,17.70
2015,06,28,06,04,17.70
2015,06,28,06,05,17.80
2015,06,28,06,06,17.80
2015,06,28,06,07,17.90
2015,06,28,06,08,17.90
2015,06,28,06,09,18.00
2015,06,28,06,10,18.00
2015,06,28,06,11,18.00
2015,06,28,06,12,18.00
2015,06,28,06,13,18.00
2015,06,28,06,14,18.00
2015,06,28,06,15,18.00
2015,06,28,06,16,18.00
2015,06,28,06,17,18.10
2015,06,28,06,18,18.10
2015,06,28,06,19,18.10
2015,06,28,06,20,18.10
2015,06,28,06,21,18.10
2015,06,28,06,22,18.10
2015,06,28,06,23,18.20
2015,06,28,06,24,18.20
2015,06,28,06,25,18.20
2015,06,28,06,26,18.20
2015,06,28,06,27,18.30
2015,06,28,06,28,18.40
2015,06,28,06,29,18.40
2015,06,28,06,30,18.50
2015,06,28,06,31,18.50
2015,06,28,06,32,18.60
2015,06,28,06,33,18.60
2015,06,28,06,34,18.60
2015,06,28,06,35,18.60
2015,06,28,06,36,18.60
2015,06,28,06,37,18.70
2015,06,28,06,38,18.70
2015,06,28,06,39,18.70
2015,06,28,06,40,18.70
2015,06,28,06,41,18.70
2015,06,28,06,42,18.70
2015,06,28,06,43,18.70
2015,06,28,06,44,18.70
2015,06,28,06,45,18.70
2015,06,28,06,46,18.70
2015,06,28,06,47,18.70
2015,06,28,06,48,18.70
2015,06,28,06,49,18.70
2015,06,28,06,50,18.70
2015,06,28,06,51,18.80
2015,06,28,06,52,18.80
2015,06,28,06,53,18.80
2015,06,28,06,54,18.80
2015,06,28,06,55,18.90
2015,06,28,06,56,18.90
2015,06,28,06,57,18.90
2015,06,28,06,58,19.00
2015,06,28,06,59,19.00
2015,06,28,07,00,19.10
2015,06,28,07,01,19.10
2015,06,28,07,02,19.20
2015,06,28,07,03,19.20
2015,06,28,07,04,19.20
2015,06,28,07,05,19.30
2015,06,28,07,06,19.30
2015,06,28,07,07,19.40
2015,06,28,07,08,19.40
2015,06,28,07,09,19.50
2015,06,28,07,10,19.50
2015,06,28,07,11,19.60
2015,06,28,07,12,19.70
2015,06,28,07,13,19.80
2015,06,28,07,14,19.80
2015,06,28,07,15,19.90
2015,06,28,07,16,19.90
2015,06,28,07,17,19.90
2015,06,28,07,18,20.00
2015,06,28,07,19,20.00
2015,06,28,07,20,20.10
2015,06,28,07,21,20.10
2015,06,28,07,22,20.20
2015,06,28,07,23,20.20
2015,06,28,07,24,20.30
2015,06,28,07,25,20.30
2015,06,28,07,26,20.40
2015,06,28,07,27,20.40
2015,06,28,07,28,20.40
2015,06,28,07,29,20.40
2015,06,28,07,30,20.40
2015,06,28,07,31,20.40
2015,06,28,07,32,20.40
2015,06,28,07,33,20.40
2015,06,28,07,34,20.40
2015,06,28,07,35,20.40
2015,06,28,07,36,20.40
2015,06,28,07,37,20.50
2015,06,28,07,38,20.50
2015,06,28,07,39,20.50
2015,06,28,07,40,20.60
2015,06,28,07,41,20.60
2015,06,28,07,42,20.60
2015,06,28,07,43,20.70
2015,06,28,07,44,20.70
2015,06,28,07,45,20.70
2015,06,28,07,46,20.70
2015,06,28,07,47,20.70
2015,06,28,07,48,20.70
2015,06,28,07,49,20.70
2015,06,28,07,50,20.70
2015,06,28,07,51,20.80
2015,06,28,07,52,20.90
2015,06,28,07,53,21.00
2015,06,28,07,54,21.00
2015,06,28,07,55,21.10
2015,06,28,07,56,21.20
2015,06,28,07,57,21.20
2015,06,28,07,58,21.30
2015,06,28,07,59,21.30
2015,06,28,08,00,21.40
2015,06,28,08,01,21.50
2015,06,28,08,02,21.60
2015,06,28,08,03,21.60
2015,06,28,08,04,21.70
2015,06,28,08,05,21.70
2015,06,28,08,06,21.80
2015,06,28,08,07,21.80
2015,06,28,08,08,21.90
2015,06,28,08,09,21.90
2015,06,28,08,10,21.90
2015,06,28,08,11,21.90
2015,06,28,08,12,22.00
2015,06,28,08,13,22.00
2015,06,28,08,14,22.10
2015,06,28,08,15,22.10
2015,06,28,08,16,22.20
2015,06,28,08,17,22.30
2015,06,28,08,18,22.40
2015,06,28,08,19,22.40
2015,06,28,08,20,22.50
2015,06,28,08,21,22.50
2015,06,28,08,22,22.60
2015,06,28,08,23,22.50
2015,06,28,08,24,22.50
2015,06,28,08,25,22.40
2015,06,28,08,26,22.40
2015,06,28,08,27,22.40
2015,06,28,08,28,22.40
2015,06,28,08,29,22.30
2015,06,28,08,30,22.30
2015,06,28,08,31,22.30
2015,06,28,08,32,22.20
2015,06,28,08,33,22.20
2015,06,28,08,34,22.30
2015,06,28,08,35,22.30
2015,06,28,08,36,22.40
2015,06,28,08,37,22.40
2015,06,28,08,38,22.40
2015,06,28,08,39,22.40
2015,06,28,08,40,22.50
2015,06,28,08,41,22.50
2015,06,28,08,42,22.60
2015,06,28,08,43,22.70
2015,06,28,08,44,22.60
2015,06,28,08,45,22.60
2015,06,28,08,46,22.60
2015,06,28,08,47,22.60
2015,06,28,08,48,22.60
2015,06,28,08,49,22.70
2015,06,28,08,50,22.80
2015,06,28,08,51,22.90
2015,06,28,08,52,22.90
2015,06,28,08,53,23.00
2015,06,28,08,54,23.10
2015,06,28,08,55,23.10
2015,06,28,08,56,23.20
2015,06,28,08,57,23.20
2015,06,28,08,58,23.30
2015,06,28,08,59,23.30
2015,06,28,09,00,23.40
2015,06,28,09,01,23.40
2015,06,28,09,02,23.50
2015,06,28,09,03,23.60
2015,06,28,09,04,23.70
2015,06,28,09,05,23.70
2015,06,28,09,06,23.70
2015,06,28,09,07,23.80
2015,06,28,09,08,23.90
2015,06,28,09,09,23.90
2015,06,28,09,10,24.00
2015,06,28,09,11,24.00
2015,06,28,09,12,24.10
2015,06,28,09,13,24.10
2015,06,28,09,14,24.10
2015,06,28,09,15,24.10
2015,06,28,09,16,24.10
2015,06,28,09,17,24.20
2015,06,28,09,18,24.20
2015,06,28,09,19,24.20
2015,06,28,09,20,24.30
2015,06,28,09,21,24.30
2015,06,28,09,22,24.20
2015,06,28,09,23,24.20
2015,06,28,09,24,24.20
2015,06,28,09,25,24.20
2015,06,28,09,26,24.10
2015,06,28,09,27,24.00
2015,06,28,09,28,23.90
2015,06,28,09,29,23.90
2015,06,28,09,30,23.90
2015,06,28,09,31,23.80
2015,06,28,09,32,23.60
2015,06,28,09,33,23.50
2015,06,28,09,34,23.40
2015,06,28,09,35,23.30
2015,06,28,09,36,23.30
2015,06,28,09,37,23.30
2015,06,28,09,38,23.40
2015,06,28,09,39,23.40
2015,06,28,09,40,23.50
2015,06,28,09,41,23.60
2015,06,28,09,42,23.60
2015,06,28,09,43,23.70
2015,06,28,09,44,23.80
2015,06,28,09,45,23.80
2015,06,28,09,46,23.80
2015,06,28,09,47,23.80
2015,06,28,09,48,23.80
2015,06,28,09,49,23.80
2015,06,28,09,50,23.80
2015,06,28,09,51,23.90
2015,06,28,09,52,24.00
2015,06,28,09,53,24.10
2015,06,28,09,54,24.20
2015,06,28,09,55,24.20
2015,06,28,09,56,24.30
2015,06,28,09,57,24.40
2015,06,28,09,58,24.50
2015,06,28,09,59,24.60
2015,06,28,10,00,24.70
2015,06,28,10,01,24.80
2015,06,28,10,02,24.80
2015,06,28,10,03,24.90
2015,06,28,10,04,25.00
2015,06,28,10,05,25.10
2015,06,28,10,06,25.20
2015,06,28,10,07,25.20
2015,06,28,10,08,25.30
2015,06,28,10,09,25.40
2015,06,28,10,10,25.50
2015,06,28,10,11,25.60
2015,06,28,10,12,25.70
2015,06,28,10,13,25.70
2015,06,28,10,14,25.80
2015,06,28,10,15,25.90
2015,06,28,10,16,25.90
2015,06,28,10,17,26.00
2015,06,28,10,18,26.20
2015,06,28,10,19,26.30
2015,06,28,10,20,26.30
2015,06,28,10,21,26.30
2015,06,28,10,22,26.30
2015,06,28,10,23,26.40
2015,06,28,10,24,26.50
2015,06,28,10,25,26.50
2015,06,28,10,26,26.60
2015,06,28,10,27,26.60
2015,06,28,10,28,26.70
2015,06,28,10,29,26.80
2015,06,28,10,30,26.80
2015,06,28,10,31,26.90
2015,06,28,10,32,27.00
2015,06,28,10,33,27.00
2015,06,28,10,34,27.00
2015,06,28,10,35,27.00
2015,06,28,10,36,27.00
2015,06,28,10,37,27.00
2015,06,28,10,38,26.90
2015,06,28,10,39,26.90
2015,06,28,10,40,27.00
2015,06,28,10,41,27.10
2015,06,28,10,42,27.20
2015,06,28,10,43,27.20
2015,06,28,10,44,27.20
2015,06,28,10,45,27.20
2015,06,28,10,46,27.30
2015,06,28,10,47,27.30
2015,06,28,10,48,27.30
2015,06,28,10,49,27.30
2015,06,28,10,50,27.30
2015,06,28,10,51,27.30
2015,06,28,10,52,27.40
2015,06,28,10,53,27.40
2015,06,28,10,54,27.40
2015,06,28,10,55,27.40
2015,06,28,10,56,27.40
2015,06,28,10,57,27.50
2015,06,28,10,58,27.40
2015,06,28,10,59,27.30
2015,06,28,11,00,27.30
2015,06,28,11,01,27.20
2015,06,28,11,02,27.20
2015,06,28,11,03,27.30
2015,06,28,11,04,27.30
2015,06,28,11,05,27.20
2015,06,28,11,06,27.20
2015,06,28,11,07,27.20
2015,06,28,11,08,27.10
2015,06,28,11,09,27.10
2015,06,28,11,10,27.20
2015,06,28,11,11,27.30
2015,06,28,11,12,27.40
2015,06,28,11,13,27.50
2015,06,28,11,14,27.60
2015,06,28,11,15,27.60
2015,06,28,11,16,27.70
2015,06,28,11,17,27.70
2015,06,28,11,18,27.80
2015,06,28,11,19,27.90
2015,06,28,11,20,27.90
2015,06,28,11,21,28.00
2015,06,28,11,22,28.10
2015,06,28,11,23,28.20
2015,06,28,11,24,28.20
2015,06,28,11,25,28.30
2015,06,28,11,26,28.40
2015,06,28,11,27,28.50
2015,06,28,11,28,28.60
2015,06,28,11,29,28.70
2015,06,28,11,30,28.80
2015,06,28,11,31,28.90
2015,06,28,11,32,28.90
2015,06,28,11,33,28.90
2015,06,28,11,34,28.80
2015,06,28,11,35,28.80
2015,06,28,11,36,28.80
2015,06,28,11,37,28.80
2015,06,28,11,38,28.80
2015,06,28,11,39,28.80
2015,06,28,11,40,28.70
2015,06,28,11,41,28.70
2015,06,28,11,42,28.80
2015,06,28,11,43,28.80
2015,06,28,11,44,28.90
2015,06,28,11,45,28.90
2015,06,28,11,46,28.90
2015,06,28,11,47,28.90
2015,06,28,11,48,29.10
2015,06,28,11,49,29.20
2015,06,28,11,50,29.30
2015,06,28,11,51,29.30
2015,06,28,11,52,29.20
2015,06,28,11,53,29.20
2015,06,28,11,54,29.40
2015,06,28,11,55,29.50
2015,06,28,11,56,29.60
2015,06,28,11,57,29.80
2015,06,28,11,58,29.90
2015,06,28,11,59,30.00
2015,06,28,12,00,30.10
2015,06,28,12,01,30.20
2015,06,28,12,02,30.30
2015,06,28,12,03,30.20
2015,06,28,12,04,30.20
2015,06,28,12,05,30.20
2015,06,28,12,06,30.20
2015,06,28,12,07,30.20
2015,06,28,12,08,30.10
2015,06,28,12,09,30.10
2015,06,28,12,10,30.00
2015,06,28,12,11,29.90
2015,06,28,12,12,29.90
2015,06,28,12,13,29.70
2015,06,28,12,14,29.50
2015,06,28,12,15,29.30
2015,06,28,12,16,29.10
2015,06,28,12,17,28.90
2015,06,28,12,18,28.80
2015,06,28,12,19,28.70
2015,06,28,12,20,28.60
2015,06,28,12,21,28.60
2015,06,28,12,22,28.60
2015,06,28,12,23,28.60
2015,06,28,12,24,28.70
2015,06,28,12,25,28.80
2015,06,28,12,26,28.90
2015,06,28,12,27,29.00
2015,06,28,12,28,29.00
2015,06,28,12,29,29.00
2015,06,28,12,30,28.90
2015,06,28,12,31,29.00
2015,06,28,12,32,29.10
2015,06,28,12,33,29.20
2015,06,28,12,34,29.30
2015,06,28,12,35,29.30
2015,06,28,12,36,29.30
2015,06,28,12,37,29.20
2015,06,28,12,38,29.20
2015,06,28,12,39,29.20
2015,06,28,12,40,29.00
2015,06,28,12,41,29.00
2015,06,28,12,42,29.00
2015,06,28,12,43,29.00
2015,06,28,12,44,29.10
2015,06,28,12,45,29.20
2015,06,28,12,46,29.20
2015,06,28,12,47,29.20
2015,06,28,12,48,29.20
2015,06,28,12,49,29.30
2015,06,28,12,50,29.30
2015,06,28,12,51,29.30
2015,06,28,12,52,29.30
2015,06,28,12,53,29.30
2015,06,28,12,54,29.30
2015,06,28,12,55,29.20
2015,06,28,12,56,29.20
2015,06,28,12,57,29.30
2015,06,28,12,58,29.40
2015,06,28,12,59,29.50
2015,06,28,13,00,29.50
2015,06,28,13,01,29.50
2015,06,28,13,02,29.60
2015,06,28,13,03,29.70
2015,06,28,13,04,29.80
2015,06,28,13,05,29.80
2015,06,28,13,06,29.90
2015,06,28,13,07,29.90
2015,06,28,13,08,30.00
2015,06,28,13,09,30.00
2015,06,28,13,10,30.00
2015,06,28,13,11,30.00
2015,06,28,13,12,30.00
2015,06,28,13,13,30.10
2015,06,28,13,14,30.20
2015,06,28,13,15,30.30
2015,06,28,13,16,30.40
2015,06,28,13,17,30.60
2015,06,28,13,18,30.80
2015,06,28,13,19,31.00
2015,06,28,13,20,31.10
2015,06,28,13,21,31.30
2015,06,28,13,22,31.40
2015,06,28,13,23,31.50
2015,06,28,13,24,31.60
2015,06,28,13,25,31.50
2015,06,28,13,26,31.40
2015,06,28,13,27,31.30
2015,06,28,13,28,31.20
2015,06,28,13,29,31.10
2015,06,28,13,30,31.20
2015,06,28,13,31,31.10
2015,06,28,13,32,31.10
2015,06,28,13,33,31.10
2015,06,28,13,34,31.10
2015,06,28,13,35,31.10
2015,06,28,13,36,31.10
2015,06,28,13,37,31.00
2015,06,28,13,38,31.00
2015,06,28,13,39,30.90
2015,06,28,13,40,30.90
2015,06,28,13,41,30.90
2015,06,28,13,42,30.80
2015,06,28,13,43,30.80
2015,06,28,13,44,30.80
2015,06,28,13,45,30.80
2015,06,28,13,46,30.70
2015,06,28,13,47,30.70
2015,06,28,13,48,30.50
2015,06,28,13,49,30.40
2015,06,28,13,50,30.40
2015,06,28,13,51,30.30
2015,06,28,13,52,30.20
2015,06,28,13,53,30.00
2015,06,28,13,54,29.80
2015,06,28,13,55,29.70
2015,06,28,13,56,29.70
2015,06,28,13,57,29.70
2015,06,28,13,58,29.70
2015,06,28,13,59,29.70
2015,06,28,14,00,29.80
2015,06,28,14,01,29.80
2015,06,28,14,02,29.80
2015,06,28,14,03,29.80
2015,06,28,14,04,29.90
2015,06,28,14,05,29.80
2015,06,28,14,06,29.80
2015,06,28,14,07,29.90
2015,06,28,14,08,30.00
2015,06,28,14,09,30.10
2015,06,28,14,10,30.10
2015,06,28,14,11,30.00
2015,06,28,14,12,29.80
2015,06,28,14,13,29.60
2015,06,28,14,14,29.50
2015,06,28,14,15,29.40
2015,06,28,14,16,29.30
2015,06,28,14,17,29.20
2015,06,28,14,18,29.20
2015,06,28,14,19,29.20
2015,06,28,14,20,29.20
2015,06,28,14,21,29.20
2015,06,28,14,22,29.20
2015,06,28,14,23,29.30
2015,06,28,14,24,29.30
2015,06,28,14,25,29.50
2015,06,28,14,26,29.60
2015,06,28,14,27,29.70
2015,06,28,14,28,29.80
2015,06,28,14,29,29.90
2015,06,28,14,30,30.00
2015,06,28,14,31,30.10
2015,06,28,14,32,30.20
2015,06,28,14,33,30.40
2015,06,28,14,34,30.50
2015,06,28,14,35,30.70
2015,06,28,14,36,30.80
2015,06,28,14,37,30.80
2015,06,28,14,38,30.80
2015,06,28,14,39,30.90
2015,06,28,14,40,30.90
2015,06,28,14,41,31.00
2015,06,28,14,42,31.10
2015,06,28,14,43,31.20
2015,06,28,14,44,31.30
2015,06,28,14,45,31.40
2015,06,28,14,46,31.50
2015,06,28,14,47,31.60
2015,06,28,14,48,31.60
2015,06,28,14,49,31.60
2015,06,28,14,50,31.50
2015,06,28,14,51,31.50
2015,06,28,14,52,31.40
2015,06,28,14,53,31.40
2015,06,28,14,54,31.40
2015,06,28,14,55,31.40
2015,06,28,14,56,31.50
2015,06,28,14,57,31.50
2015,06,28,14,58,31.60
2015,06,28,14,59,31.60
2015,06,28,15,00,31.60
2015,06,28,15,01,31.60
2015,06,28,15,02,31.70
2015,06,28,15,03,31.80
2015,06,28,15,04,31.80
2015,06,28,15,05,31.80
2015,06,28,15,06,31.80
2015,06,28,15,07,31.90
2015,06,28,15,08,32.00
2015,06,28,15,09,32.10
2015,06,28,15,10,32.20
2015,06,28,15,11,32.30
2015,06,28,15,12,32.30
2015,06,28,15,13,32.30
2015,06,28,15,14,32.30
2015,06,28,15,15,32.30
2015,06,28,15,16,32.20
2015,06,28,15,17,32.20
2015,06,28,15,18,32.20
2015,06,28,15,19,32.20
2015,06,28,15,20,32.20
2015,06,28,15,21,32.20
2015,06,28,15,22,32.10
2015,06,28,15,23,32.10
2015,06,28,15,24,32.00
2015,06,28,15,25,32.10
2015,06,28,15,26,32.10
2015,06,28,15,27,32.20
2015,06,28,15,28,32.10
2015,06,28,15,29,32.10
2015,06,28,15,30,32.00
2015,06,28,15,31,31.90
2015,06,28,15,32,31.80
2015,06,28,15,33,31.80
2015,06,28,15,34,31.80
2015,06,28,15,35,31.80
2015,06,28,15,36,31.80
2015,06,28,15,37,31.80
2015,06,28,15,38,31.80
2015,06,28,15,39,31.90
2015,06,28,15,40,31.90
2015,06,28,15,41,31.90
2015,06,28,15,42,32.00
2015,06,28,15,43,32.00
2015,06,28,15,44,32.10
2015,06,28,15,45,32.10
2015,06,28,15,46,32.10
2015,06,28,15,47,32.00
2015,06,28,15,48,32.00
2015,06,28,15,49,32.00
2015,06,28,15,50,32.00
2015,06,28,15,51,32.00
2015,06,28,15,52,32.10
2015,06,28,15,53,32.20
2015,06,28,15,54,32.20
2015,06,28,15,55,32.20
2015,06,28,15,56,32.20
2015,06,28,15,57,32.20
2015,06,28,15,58,32.20
2015,06,28,15,59,32.20
2015,06,28,16,00,32.20
2015,06,28,16,01,32.20
2015,06,28,16,02,32.20
2015,06,28,16,03,32.20
2015,06,28,16,04,32.20
2015,06,28,16,05,32.30
2015,06,28,16,06,32.30
2015,06,28,16,07,32.40
2015,06,28,16,08,32.50
2015,06,28,16,09,32.60
2015,06,28,16,10,32.60
2015,06,28,16,11,32.60
2015,06,28,16,12,32.60
2015,06,28,16,13,32.70
2015,06,28,16,14,32.70
2015,06,28,16,15,32.70
2015,06,28,16,16,32.70
2015,06,28,16,17,32.70
2015,06,28,16,18,32.70
2015,06,28,16,19,32.70
2015,06,28,16,20,32.70
2015,06,28,16,21,32.80
2015,06,28,16,22,32.80
2015,06,28,16,23,32.90
2015,06,28,16,24,33.00
2015,06,28,16,25,33.10
2015,06,28,16,26,33.20
2015,06,28,16,27,33.30
2015,06,28,16,28,33.30
2015,06,28,16,29,33.40
2015,06,28,16,30,33.50
2015,06,28,16,31,33.60
2015,06,28,16,32,33.70
2015,06,28,16,33,33.80
2015,06,28,16,34,33.90
2015,06,28,16,35,34.00
2015,06,28,16,36,34.10
2015,06,28,16,37,34.20
2015,06,28,16,38,34.20
2015,06,28,16,39,34.30
2015,06,28,16,40,34.30
2015,06,28,16,41,34.40
2015,06,28,16,42,34.40
2015,06,28,16,43,34.40
2015,06,28,16,44,34.40
2015,06,28,16,45,34.20
2015,06,28,16,46,34.00
2015,06,28,16,47,33.80
2015,06,28,16,48,33.70
2015,06,28,16,49,33.60
2015,06,28,16,50,33.50
2015,06,28,16,51,33.40
2015,06,28,16,52,33.40
2015,06,28,16,53,33.30
2015,06,28,16,54,33.10
2015,06,28,16,55,32.90
2015,06,28,16,56,32.60
2015,06,28,16,57,32.40
2015,06,28,16,58,32.20
2015,06,28,16,59,32.10
2015,06,28,17,00,31.90
2015,06,28,17,01,31.80
2015,06,28,17,02,31.70
2015,06,28,17,03,31.70
2015,06,28,17,04,31.70
2015,06,28,17,05,31.60
2015,06,28,17,06,31.60
2015,06,28,17,07,31.60
2015,06,28,17,08,31.60
2015,06,28,17,09,31.50
2015,06,28,17,10,31.30
2015,06,28,17,11,31.10
2015,06,28,17,12,30.90
2015,06,28,17,13,30.70
2015,06,28,17,14,30.50
2015,06,28,17,15,30.30
2015,06,28,17,16,30.30
2015,06,28,17,17,30.20
2015,06,28,17,18,30.10
2015,06,28,17,19,30.10
2015,06,28,17,20,30.10
2015,06,28,17,21,30.10
2015,06,28,17,22,30.20
2015,06,28,17,23,30.30
2015,06,28,17,24,30.40
2015,06,28,17,25,30.50
2015,06,28,17,26,30.70
2015,06,28,17,27,30.90
2015,06,28,17,28,31.00
2015,06,28,17,29,31.10
2015,06,28,17,30,31.10
2015,06,28,17,31,31.00
2015,06,28,17,32,30.80
2015,06,28,17,33,30.50
2015,06,28,17,34,30.30
2015,06,28,17,35,30.00
2015,06,28,17,36,29.80
2015,06,28,17,37,29.60
2015,06,28,17,38,29.50
2015,06,28,17,39,29.50
2015,06,28,17,40,29.50
2015,06,28,17,41,29.50
2015,06,28,17,42,29.60
2015,06,28,17,43,29.60
2015,06,28,17,44,29.70
2015,06,28,17,45,29.70
2015,06,28,17,46,29.80
2015,06,28,17,47,29.90
2015,06,28,17,48,30.00
2015,06,28,17,49,30.20
2015,06,28,17,50,30.30
2015,06,28,17,51,30.40
2015,06,28,17,52,30.60
2015,06,28,17,53,30.70
2015,06,28,17,54,30.80
2015,06,28,17,55,30.90
2015,06,28,17,56,31.00
2015,06,28,17,57,31.00
2015,06,28,17,58,31.00
2015,06,28,17,59,30.90
2015,06,28,18,00,30.70
2015,06,28,18,01,30.60
2015,06,28,18,02,30.40
2015,06,28,18,03,30.20
2015,06,28,18,04,30.00
2015,06,28,18,05,29.90
2015,06,28,18,06,29.80
2015,06,28,18,07,29.70
2015,06,28,18,08,29.50
2015,06,28,18,09,29.30
2015,06,28,18,10,28.80
2015,06,28,18,11,28.40
2015,06,28,18,12,28.00
2015,06,28,18,13,27.60
2015,06,28,18,14,27.30
2015,06,28,18,15,26.70
2015,06,28,18,16,26.20
2015,06,28,18,17,25.80
2015,06,28,18,18,25.40